GFSCGP_prec_cthk_201.txt.gz
RH
25 30 31 30 31 33 36 36 35 31 28 29 28 26 25 24 22 24 26 29 32 36 42 43 44 47 46 45 45 43 42 43 43 41 41 36 36 35 35 35 36 40 45 45
26 29 26 26 28 29 29 31 31 28 28 27 25 22 22 24 26 26 27 28 29 31 32 33 36 40 45 47 48 52 51 49 47 45 45 44 41 38 37 36 35 35 37 39
28 26 26 26 26 27 27 30 30 30 26 24 24 24 22 25 25 26 28 28 30 33 36 37 40 42 45 47 50 51 51 50 51 52 50 48 45 42 39 40 38 35 35 37
26 26 25 24 24 24 27 25 24 24 26 31 27 34 23 29 30 31 33 35 38 40 41 39 37 41 48 49 50 52 52 52 53 55 50 53 53 46 43 43 45 41 36 35
24 23 24 23 24 23 26 25 24 24 28 30 27 37 28 34 34 32 33 33 32 35 38 38 46 51 54 58 63 68 71 66 65 62 65 53 49 49 48 48 49 48 42 38
24 23 23 24 25 26 26 26 25 24 27 34 33 37 36 36 32 29 33 35 37 39 44 51 54 59 67 75 76 77 81 83 70 56 55 58 48 51 42 47 52 55 52 43
27 25 27 26 28 29 29 26 35 32 25 22 31 38 30 30 33 33 38 42 44 49 54 64 68 76 76 73 69 68 68 73 79 69 61 53 59 50 46 43 51 61 58 50
36 34 29 33 33 34 32 35 40 52 49 38 37 47 35 39 39 44 55 54 56 69 75 73 71 75 75 65 62 62 69 65 80 78 74 71 59 49 49 46 55 64 63 59
39 38 35 34 34 33 37 38 34 44 39 54 43 36 50 48 53 61 61 61 60 71 75 71 64 64 59 63 62 65 61 61 69 76 68 63 55 46 48 53 59 68 68 62
38 47 40 40 38 32 32 30 40 44 67 75 52 50 45 61 63 57 52 49 53 67 66 64 61 57 57 60 58 60 58 57 59 66 60 51 41 41 48 55 65 72 75 66
39 43 39 35 32 31 38 39 41 48 62 76 67 42 43 43 42 45 56 57 58 57 66 65 56 51 54 57 55 50 55 52 47 58 47 39 34 42 49 54 64 72 76 77
43 46 49 39 30 32 38 40 45 58 56 66 77 49 31 46 57 67 70 72 71 61 60 65 60 52 54 51 54 49 48 47 48 45 38 31 32 40 55 55 59 71 75 83
49 53 58 40 31 33 39 42 46 55 63 59 83 53 44 54 59 66 75 70 67 61 63 66 62 58 52 50 47 45 41 41 43 45 33 30 31 46 62 59 61 62 70 70
39 57 55 56 45 53 55 50 55 59 66 70 61 64 49 46 47 47 52 56 55 53 60 61 61 55 51 53 50 43 40 38 41 40 36 29 31 51 68 62 57 55 61 60
44 54 52 48 48 52 50 48 46 59 60 88 58 63 52 38 33 31 34 38 41 49 63 64 58 56 58 53 45 44 41 41 39 40 37 29 35 61 73 66 58 56 55 68
37 42 49 43 41 49 49 45 47 51 63 75 73 63 37 30 25 28 33 39 46 53 50 45 51 53 58 56 48 42 41 41 41 40 38 28 34 63 75 67 56 56 62 76
42 48 53 50 48 57 61 50 56 57 63 69 65 43 33 24 31 35 36 39 40 42 43 46 52 52 55 52 47 44 41 42 38 38 36 30 31 58 80 72 63 58 69 92
45 54 62 61 65 73 44 50 57 61 57 61 54 46 27 28 32 33 34 35 37 42 42 40 43 44 46 46 44 43 42 37 38 34 34 31 31 64 80 76 79 65 87 97
51 64 74 77 77 55 49 62 61 58 57 54 47 39 31 30 31 31 33 34 37 36 35 42 42 45 50 49 49 44 42 38 35 33 32 32 31 66 95 88 81 81 99 99
51 65 77 86 94 84 65 68 69 68 69 62 48 36 32 33 36 34 30 35 39 36 36 40 49 53 51 50 46 40 37 35 37 33 33 32 35 75 97 91 90 98 98 96
46 54 74 77 86 80 88 83 75 79 76 69 51 41 35 33 35 35 34 33 46 48 37 35 45 44 45 47 43 44 42 39 38 35 36 31 47 88 98 93 99 98 93 97
42 52 58 84 89 94 84 82 88 82 79 70 55 42 35 35 35 34 34 36 44 46 44 44 45 45 43 45 46 43 44 41 39 37 40 34 61 94 94 95 99 97 97 99
57 59 80 79 69 70 81 88 79 83 80 62 52 35 35 35 33 35 36 33 42 43 42 42 43 43 47 49 46 42 44 42 38 38 41 39 71 96 97 99 97 98 98 97
56 56 62 61 47 68 77 73 83 84 75 59 42 32 33 33 35 37 33 32 34 40 39 46 55 64 66 69 66 59 48 44 40 40 43 41 84 94 99 98 99 97 98 98
58 67 64 57 42 59 66 75 84 78 69 53 37 31 31 34 38 38 31 30 38 40 54 68 78 84 89 86 77 66 53 45 41 40 37 46 85 97 97 99 99 98 99 96
65 64 73 57 44 60 68 76 80 78 68 48 35 30 33 38 42 39 31 33 39 50 66 80 89 97 94 88 80 63 51 42 39 38 36 61 87 99 98 98 99 99 99 98

GFSCGP_prec_cthk_207.txt.gz
RH
24 25 28 27 28 29 31 31 29 25 22 20 21 19 18 21 27 27 27 28 25 26 27 28 31 33 33 33 34 35 36 36 36 38 41 46 48 49 49 51 50 47 44 38
26 29 26 24 22 21 21 23 23 21 20 18 17 17 21 22 26 26 26 26 28 29 31 33 32 32 32 32 35 35 36 36 37 38 38 38 41 46 50 55 55 53 50 43
25 26 23 21 21 20 22 22 23 23 20 19 20 15 22 24 26 26 28 28 28 28 27 28 28 28 30 31 32 33 34 37 41 43 42 41 45 49 50 54 61 58 51 46
23 23 21 20 19 21 23 22 22 21 20 15 18 18 22 26 27 29 31 28 28 29 29 30 34 35 34 36 38 37 36 33 31 34 38 40 40 45 53 54 55 57 50 49
21 23 21 22 21 21 22 22 21 17 20 22 25 28 23 28 30 29 25 27 28 30 31 35 36 37 36 34 34 38 38 42 41 37 38 38 42 45 52 56 53 58 57 53
22 21 23 24 23 24 23 21 17 21 25 25 30 30 24 24 26 24 28 29 34 35 38 38 40 40 39 36 38 41 42 44 47 46 45 46 49 51 54 58 52 60 56 57
24 24 24 25 25 22 22 21 21 14 15 17 31 27 18 24 29 28 29 34 39 44 43 44 41 38 38 37 40 37 45 50 49 53 49 50 47 53 61 60 56 57 64 61
34 22 27 27 26 28 28 29 26 36 22 19 22 23 20 29 29 32 34 33 36 36 39 38 40 43 44 45 43 40 41 57 57 54 51 48 49 49 58 64 59 59 67 64
35 31 28 28 28 29 29 31 30 36 34 45 32 30 22 26 24 33 26 36 34 35 41 48 50 54 54 54 55 49 47 53 59 52 49 48 50 48 62 55 63 63 72 66
36 41 33 33 31 29 27 30 32 38 53 59 41 29 23 25 28 27 38 38 28 29 38 47 55 60 56 59 57 55 53 50 55 50 48 47 50 54 72 66 65 58 66 69
35 40 34 32 26 26 31 37 43 43 51 64 59 34 26 29 31 42 41 37 32 29 34 39 47 49 49 54 55 54 58 55 52 51 45 50 52 51 71 60 56 61 69 61
40 44 51 36 28 31 37 45 48 68 62 59 70 46 29 35 44 54 47 40 35 31 29 29 33 39 46 48 50 51 52 56 57 49 47 51 50 54 65 50 47 56 66 66
38 44 47 26 27 33 40 46 57 68 74 58 71 45 34 46 49 53 47 34 31 29 30 34 37 39 40 37 39 44 50 57 58 50 51 49 49 58 55 42 43 61 70 64
32 43 41 35 33 43 52 45 49 58 63 55 52 62 51 57 62 49 35 31 32 34 36 34 34 34 31 33 38 33 44 52 55 51 50 46 46 60 49 38 46 60 67 65
31 38 34 36 36 40 39 36 31 47 53 84 66 67 64 68 63 49 35 34 35 31 29 30 32 33 30 27 34 37 40 43 46 50 46 40 49 50 41 33 42 59 65 70
36 42 41 38 33 36 38 31 43 53 64 72 72 66 69 67 58 42 34 39 33 32 31 31 29 33 34 30 30 37 38 46 43 45 38 36 50 41 38 33 41 61 60 67
42 43 50 48 36 45 47 47 44 51 60 69 73 74 69 63 55 44 39 36 35 34 36 32 34 38 38 28 26 31 32 38 36 35 34 36 45 35 35 31 44 63 62 62
43 53 56 61 56 66 46 48 52 63 69 81 86 85 79 70 59 48 42 33 32 36 38 36 35 40 38 33 29 31 32 35 33 32 33 32 38 34 33 30 39 64 65 66
43 54 57 66 50 46 36 49 53 70 77 81 82 84 82 74 62 44 40 36 36 38 41 34 38 38 35 33 29 34 35 34 30 30 30 31 32 32 33 31 42 63 65 66
38 50 42 36 48 35 48 47 46 52 64 82 87 86 84 78 67 45 35 37 35 41 38 30 32 35 36 34 36 38 39 35 30 29 28 30 31 32 34 37 53 64 67 68
38 37 39 41 59 43 44 51 52 82 90 83 87 86 84 82 64 41 37 36 39 43 37 35 37 43 51 56 52 43 38 39 34 32 31 33 34 33 39 46 64 72 73 74
40 44 48 62 72 68 64 60 71 67 71 78 82 86 81 72 50 42 35 38 42 42 43 40 43 52 67 76 75 64 49 41 37 34 33 35 35 33 45 71 81 83 80 85
43 43 54 60 51 41 48 54 50 65 72 72 81 81 77 63 45 38 38 42 47 45 45 47 50 65 77 87 89 71 56 45 37 38 37 35 33 37 69 97 97 90 94 96
46 53 60 63 49 59 56 56 54 58 67 71 80 79 70 56 42 39 40 47 46 43 47 50 64 75 87 95 90 80 59 47 39 37 33 32 34 57 88 96 97 96 94 99
56 67 68 64 64 60 67 71 59 51 61 77 81 76 63 54 42 38 41 49 43 46 50 59 69 84 90 83 78 76 64 52 43 36 33 37 56 88 97 98 98 98 98 98
63 71 79 78 84 78 61 59 60 71 72 78 81 73 60 48 38 36 47 44 43 51 55 65 83 95 92 76 72 64 58 51 42 35 40 58 83 98 98 98 98 98 99 99

GFSCGP_prec_cthk_210.txt.gz
RH
24 24 25 22 21 21 20 19 17 17 16 17 13 14 14 19 21 23 23 24 26 27 26 27 26 27 27 27 28 27 27 26 26 28 31 32 36 40 46 47 49 46 45 45
22 23 22 20 19 18 16 17 17 16 16 16 14 14 16 19 21 24 26 26 25 25 24 25 25 26 28 30 30 29 28 28 29 30 30 30 31 34 37 42 47 45 46 45
21 23 21 19 17 17 19 18 18 18 16 13 14 9 19 21 25 30 32 30 28 29 29 30 30 30 28 27 26 26 27 28 29 31 30 29 28 31 36 40 48 54 50 46
21 21 19 17 18 18 17 20 18 17 15 12 14 11 17 22 24 28 29 31 31 32 34 32 27 25 25 27 30 29 29 31 33 35 34 33 34 33 35 40 48 48 55 54
22 20 19 20 19 19 19 18 16 15 16 16 18 19 15 24 32 31 33 33 29 34 34 31 30 32 34 34 34 31 32 33 33 35 38 37 37 37 35 38 42 43 49 57
19 20 21 22 21 20 18 17 13 17 17 18 21 19 10 20 30 31 29 30 32 30 31 29 29 31 34 36 36 35 36 34 35 37 47 46 44 42 42 42 40 49 52 59
19 21 22 21 18 21 19 17 13 13 13 11 23 20 13 28 30 30 29 25 28 31 28 30 33 36 40 44 45 43 43 43 42 42 42 51 53 49 47 47 49 50 60 61
20 16 22 24 22 23 25 22 22 26 15 15 18 20 23 30 27 31 24 28 30 26 27 28 33 40 45 50 53 53 54 53 51 50 50 52 60 54 50 48 55 61 65 70
23 20 24 26 26 25 23 28 27 28 26 34 24 23 22 34 24 23 27 29 30 28 29 29 33 41 47 52 53 52 58 60 59 54 55 55 59 54 52 47 54 65 61 63
31 27 28 28 27 30 29 29 29 28 44 33 18 21 27 30 28 29 31 39 37 34 29 28 31 33 36 41 45 49 55 60 60 56 61 60 60 52 50 44 55 65 62 63
30 33 24 26 21 26 27 35 37 38 38 49 49 34 30 32 38 46 45 48 44 32 34 32 32 33 37 38 43 45 45 49 56 57 60 61 56 51 47 50 61 66 59 68
34 28 33 24 24 30 35 39 38 53 45 49 63 51 40 34 46 60 59 51 39 34 31 33 35 35 33 33 34 35 43 45 43 49 58 56 52 48 47 56 71 55 61 69
28 31 29 15 28 32 34 32 38 50 64 58 71 47 36 47 51 58 62 48 39 33 34 33 31 31 31 31 32 31 37 42 44 44 52 52 50 46 49 64 68 51 63 80
30 38 34 28 26 33 39 26 29 45 57 57 44 52 51 53 58 56 58 48 38 36 36 34 33 32 31 32 34 33 34 40 45 45 50 48 46 45 50 65 56 47 70 82
31 31 25 29 29 30 30 28 31 48 55 73 55 62 62 64 62 65 57 44 39 38 34 34 36 35 34 35 35 31 30 36 41 40 43 41 47 43 58 59 49 45 69 80
34 33 30 33 28 31 30 35 45 45 40 54 65 63 76 78 74 68 60 52 44 36 34 35 37 37 31 35 33 33 29 34 41 41 39 41 39 42 59 46 49 43 59 72
36 34 40 34 29 36 41 51 45 45 45 61 67 75 91 81 77 76 66 56 45 39 36 36 42 41 31 33 34 32 29 28 37 41 39 37 37 43 50 44 44 42 69 72
39 45 49 47 39 38 41 42 37 44 52 86 93 93 83 79 78 79 74 57 46 43 39 42 43 42 33 35 38 36 34 31 38 42 40 37 37 43 41 42 40 45 66 77
39 45 42 42 30 20 16 36 43 53 55 76 67 69 78 82 79 74 74 54 49 42 41 47 47 46 42 43 48 48 44 40 41 43 40 38 37 38 38 40 40 56 66 73
38 36 35 35 39 37 28 44 50 54 49 82 79 81 79 84 78 73 57 51 40 40 49 50 49 47 48 49 56 66 59 52 47 45 40 36 38 38 37 39 44 56 70 72
32 34 39 35 50 37 38 47 47 50 55 63 73 77 80 86 85 69 50 42 42 49 51 49 50 49 51 61 72 81 73 65 56 45 39 36 38 37 37 42 47 60 74 76
31 39 44 49 54 51 53 52 64 61 50 59 67 75 80 83 78 64 50 43 43 49 46 47 50 54 64 77 94 94 78 65 54 42 39 35 35 35 38 51 59 70 72 76
38 38 47 59 50 51 57 67 71 69 58 59 66 69 82 83 72 56 45 43 45 46 45 48 55 65 78 92 94 86 74 65 53 40 37 34 33 34 45 64 78 80 79 82
37 46 56 60 62 72 69 64 65 65 60 66 68 70 84 78 66 50 44 44 48 43 42 54 66 75 88 92 87 83 69 62 51 42 38 33 33 42 59 77 82 85 84 91
49 59 62 65 73 70 77 75 66 62 69 71 73 81 82 73 56 47 44 50 43 40 53 68 83 93 96 85 77 71 62 55 47 40 36 34 40 54 79 87 85 91 95 98
60 65 71 66 82 93 88 78 66 69 72 78 78 79 74 65 50 46 51 41 39 54 66 85 94 96 88 79 73 68 59 50 45 39 34 40 59 78 85 91 87 92 98 99

GFSCGP_prec_cthk_216.txt.gz
RH
19 18 20 17 16 15 15 15 14 12 11 11 10 10 11 10 14 18 21 22 25 26 27 29 31 30 31 31 31 29 27 23 19 18 17 17 19 18 17 19 25 28 30 40
22 21 17 15 15 13 12 13 15 11 10 12 12 12 13 15 19 24 26 27 29 32 36 38 39 38 37 38 37 33 34 27 22 18 17 19 19 19 21 21 22 22 23 26
20 17 14 14 15 14 13 19 17 15 14 14 12 11 18 22 25 28 29 31 34 38 40 42 43 40 34 31 33 38 35 27 30 28 27 24 21 20 19 18 20 22 23 23
18 15 16 16 15 15 16 17 15 16 17 18 15 19 18 29 31 34 37 38 36 35 38 43 39 34 28 19 20 34 34 34 34 39 37 35 31 27 26 23 21 21 24 26
20 15 17 16 17 18 17 16 14 15 17 17 17 26 24 27 41 43 48 43 39 40 40 39 40 35 21 21 28 36 39 39 44 44 44 41 39 38 32 31 28 25 24 27
18 18 18 18 15 16 18 15 13 15 18 24 19 19 16 22 29 33 35 37 41 45 48 47 44 34 24 25 29 39 38 43 57 57 53 51 51 46 39 36 37 32 29 30
18 20 22 19 17 16 15 20 25 26 27 19 13 16 27 35 38 36 38 40 44 54 50 47 43 34 28 26 27 30 33 39 52 54 55 59 56 51 49 46 48 44 37 33
18 21 22 19 21 21 24 22 33 40 27 21 16 21 27 33 39 46 51 57 59 59 54 45 40 36 35 35 37 40 44 43 42 46 47 43 43 49 49 53 58 53 47 39
25 21 19 23 22 25 25 30 28 34 28 33 25 16 17 20 24 37 47 57 61 62 49 45 50 42 40 36 38 37 36 38 36 35 39 39 37 44 45 50 60 53 50 49
25 27 24 25 24 31 32 27 31 34 53 39 21 22 26 27 25 39 42 47 52 46 41 52 60 47 39 39 37 33 34 38 38 39 40 35 38 40 44 55 59 56 57 58
25 28 25 20 26 29 28 29 31 30 29 41 46 32 21 33 50 50 62 65 61 60 55 57 50 43 45 42 34 35 39 44 38 37 35 30 37 42 52 57 56 54 54 49
31 28 33 26 28 28 30 34 33 51 48 45 52 45 38 50 56 56 62 75 72 66 64 66 51 45 45 36 35 41 42 46 38 35 33 31 37 43 48 50 48 48 46 54
29 29 36 28 31 29 27 23 26 34 44 47 73 59 62 74 72 61 82 89 65 65 71 69 65 56 44 36 38 46 48 45 35 30 32 30 33 41 46 45 45 51 60 69
35 36 37 42 33 29 27 25 33 40 52 53 63 64 52 65 64 61 91 79 62 65 73 69 65 52 42 38 42 49 46 48 40 32 31 31 29 41 46 46 53 56 70 59
36 37 33 31 26 28 25 28 39 51 52 57 52 53 57 73 85 72 77 73 62 65 71 68 59 47 40 40 46 44 45 49 51 45 36 33 33 39 46 53 55 68 55 60
35 36 34 34 30 23 26 34 34 29 30 38 48 47 54 57 68 66 65 66 75 76 71 57 50 43 41 46 48 49 55 59 64 59 50 44 46 44 55 57 66 49 51 51
34 37 43 37 30 21 27 31 30 31 33 47 58 70 65 58 59 61 60 77 76 74 65 57 45 41 45 44 47 52 58 67 71 66 61 55 53 55 55 60 49 48 52 74
35 37 41 51 31 34 23 36 35 36 35 54 60 70 65 63 65 67 76 83 76 73 61 46 42 45 41 44 54 63 70 82 84 75 63 57 55 54 56 47 46 55 77 91
36 38 47 48 44 30 31 34 42 53 42 63 68 53 46 44 56 65 77 78 74 66 48 43 47 40 44 57 68 77 90 94 81 71 63 59 59 56 47 45 55 76 93 96
39 39 50 48 52 44 35 44 44 52 53 65 73 66 63 63 64 61 64 74 64 49 46 48 40 50 62 72 83 88 92 91 73 65 61 58 59 48 46 49 66 88 96 95
39 37 44 45 54 36 47 51 61 70 80 78 74 73 74 78 78 73 71 63 51 51 48 43 53 65 77 84 88 86 84 75 65 61 59 58 47 43 42 55 78 97 98 99
38 41 44 45 48 48 44 50 73 85 77 74 72 73 76 82 78 73 66 55 56 48 47 56 69 78 86 94 91 80 76 64 60 56 52 48 41 38 47 69 86 96 98 97
39 34 40 42 40 36 44 66 72 76 71 72 80 82 81 76 70 64 59 57 51 50 57 73 81 84 95 97 89 74 66 59 53 50 48 41 39 41 78 90 93 95 94 98
26 31 35 43 41 49 51 56 69 65 71 73 77 76 75 73 65 60 57 52 47 58 73 82 88 96 96 91 80 70 62 55 50 47 42 40 37 74 89 89 97 99 98 99
28 34 43 41 42 39 48 64 67 58 68 70 70 68 70 65 58 56 53 43 58 72 83 91 94 96 94 86 69 64 61 52 46 43 39 35 57 84 90 94 97 98 98 98
38 41 48 49 51 53 49 58 61 62 67 69 63 58 63 58 54 53 41 54 67 80 90 94 97 98 93 72 65 59 53 50 44 38 35 45 75 84 94 99 98 98 98 99

GFSCGP_prec_cthk_222.txt.gz
RH
14 14 18 16 13 12 13 14 15 15 15 14 18 25 26 25 26 27 28 30 31 31 32 33 33 34 34 34 35 37 38 39 42 40 37 33 28 24 25 24 19 18 20 18
16 18 16 16 13 13 14 17 18 17 16 18 24 30 31 30 31 32 32 32 34 37 40 40 41 45 45 45 41 38 37 37 44 44 38 31 24 24 26 28 32 25 25 25
16 17 16 13 14 16 16 19 19 21 21 21 23 33 39 34 33 33 33 35 38 40 40 41 44 45 43 40 39 37 34 35 35 33 28 24 30 29 32 32 34 33 29 31
18 17 16 15 16 17 20 18 19 21 25 27 23 31 43 37 34 32 34 40 43 42 43 43 41 39 40 38 39 40 38 36 28 24 23 24 31 31 32 34 32 35 36 34
20 20 20 19 19 19 21 20 22 23 28 28 24 26 41 32 34 39 40 44 41 40 40 41 42 44 45 43 39 39 39 32 30 28 30 29 30 32 33 38 36 37 37 38
21 23 23 22 20 21 22 22 24 27 28 31 25 26 37 37 38 39 42 42 43 44 46 47 46 44 45 46 42 39 41 40 36 33 30 33 34 32 35 34 35 34 31 31
23 27 25 23 21 23 25 26 30 24 31 29 26 32 42 44 47 47 47 47 45 48 55 60 55 59 61 58 57 53 48 43 40 32 31 31 31 34 37 33 31 28 31 36
31 23 24 26 25 29 31 30 33 33 34 29 30 38 40 44 44 45 47 47 44 43 49 59 56 71 76 69 58 61 62 45 37 35 30 31 33 38 38 27 29 29 35 36
31 23 25 25 28 28 30 33 33 39 41 51 37 27 35 33 33 32 34 43 46 48 50 54 56 65 71 67 63 63 57 47 40 37 34 35 36 38 38 25 29 30 36 38
28 32 27 23 29 32 32 31 35 41 49 52 32 29 42 39 45 42 39 33 34 36 40 58 72 69 64 59 58 60 54 46 42 36 32 34 39 42 41 33 26 26 28 39
28 30 27 26 33 33 34 36 38 37 39 59 66 42 41 47 39 38 40 41 46 43 48 58 75 69 63 58 49 46 46 41 34 28 32 38 42 47 47 45 38 28 33 46
29 31 33 32 36 33 36 38 38 50 45 48 65 55 33 34 40 48 52 47 50 57 64 65 70 62 55 51 48 47 41 34 30 37 46 57 63 65 62 54 46 41 45 53
33 34 36 26 32 36 37 37 33 35 47 55 59 41 30 43 49 50 54 55 61 69 69 64 61 57 53 47 41 35 33 38 45 56 68 78 86 81 73 66 59 57 56 55
31 37 35 33 30 44 42 32 30 32 52 49 45 41 44 53 54 48 49 62 66 66 67 66 64 53 41 36 36 40 47 56 65 77 87 85 81 77 70 66 66 66 63 62
31 33 37 37 38 34 30 29 31 37 36 52 44 51 55 70 69 62 67 66 65 64 64 59 47 42 42 44 51 58 64 75 83 85 81 78 77 73 72 71 68 67 67 67
35 35 40 40 37 31 32 35 35 31 40 43 48 52 58 67 70 69 69 67 68 66 59 51 47 47 55 63 66 72 77 80 81 76 76 73 73 75 73 72 71 67 62 62
37 39 43 41 35 31 35 37 40 42 41 50 67 74 63 58 64 67 72 72 69 60 56 52 54 61 67 74 77 78 79 76 74 71 72 78 79 78 81 81 71 68 76 83
39 39 45 47 32 33 33 35 43 40 39 60 61 60 67 66 62 71 68 70 64 56 53 56 66 74 81 80 83 82 79 73 69 72 75 78 83 78 73 75 86 94 96 96
38 37 41 46 48 31 36 35 42 45 38 56 53 56 54 55 49 49 58 57 53 54 59 68 82 92 91 91 86 79 73 68 72 75 78 77 73 74 82 93 97 98 98 98
39 38 40 47 46 44 37 36 38 37 45 50 62 63 57 57 58 56 54 52 49 52 63 84 93 96 97 82 77 70 69 72 74 78 73 71 69 82 97 98 98 98 98 99
43 43 41 45 48 37 36 36 36 50 52 50 59 59 59 62 67 68 57 45 47 55 79 88 92 94 84 75 69 68 72 76 74 66 63 62 80 98 98 98 98 98 98 97
38 42 44 44 46 38 32 37 52 54 52 61 62 60 56 56 57 55 43 44 49 70 86 84 82 89 77 71 68 69 72 68 62 54 61 90 98 98 98 98 98 98 98 97
38 34 36 32 28 27 38 45 46 47 51 56 62 56 58 58 51 44 43 43 58 80 90 83 95 88 77 69 70 65 59 56 55 71 96 98 98 98 98 98 99 98 98 98
33 32 33 34 32 33 35 40 39 40 49 59 57 55 59 51 40 39 40 50 68 80 78 87 87 72 63 68 65 55 50 59 73 95 99 99 97 98 97 97 98 98 99 99
32 32 34 34 36 32 33 35 34 35 45 51 53 56 56 42 36 38 44 57 70 73 80 84 73 75 69 64 62 58 62 78 95 98 98 98 98 98 97 95 98 97 97 95
37 36 39 40 40 41 37 37 36 36 40 45 53 52 47 36 34 37 50 60 68 70 76 73 77 76 64 63 65 63 74 96 98 98 98 98 98 98 98 97 93 85 65 54

GFSCGP_prec_cthk_228.txt.gz
RH
12 14 16 15 14 13 14 16 18 19 21 26 26 26 27 30 32 35 37 39 40 41 41 40 40 43 46 50 50 48 47 49 53 50 49 50 47 38 30 20 15 14 16 16
15 19 16 16 16 15 17 20 19 21 22 26 27 27 29 32 35 36 38 39 40 40 39 39 42 43 46 46 49 55 59 60 57 54 55 53 48 37 29 22 17 19 20 19
17 18 17 16 18 19 19 21 21 22 23 25 28 32 31 35 36 37 39 39 38 38 39 40 42 42 44 45 46 49 61 61 58 58 55 46 38 33 30 30 27 25 26 23
21 20 18 17 19 20 22 19 19 22 24 25 30 30 35 39 40 39 39 39 38 37 39 42 34 27 28 35 43 43 44 47 46 44 49 47 48 46 38 36 33 32 32 32
23 21 20 20 19 20 21 18 21 23 26 28 28 30 42 41 39 36 32 31 32 31 27 20 20 24 28 30 34 41 46 48 55 58 61 63 57 54 50 45 39 37 38 39
23 23 22 21 19 21 19 19 22 26 29 31 27 28 51 42 39 33 28 26 25 24 23 25 29 34 38 35 39 46 50 51 59 61 56 54 52 53 50 44 41 39 37 34
21 22 23 22 22 22 23 23 25 24 28 22 26 26 50 43 37 33 26 25 26 33 33 34 37 40 42 44 45 46 46 41 43 45 44 43 42 44 42 38 36 33 30 29
22 18 25 24 24 26 26 26 28 30 28 23 27 37 43 33 27 23 17 23 32 36 43 44 47 49 47 45 43 41 40 36 35 35 35 34 34 35 35 35 35 37 39 41
25 18 25 23 23 24 26 31 32 32 34 41 34 30 33 25 19 19 23 28 33 43 49 50 47 49 47 46 45 47 49 50 52 51 50 48 49 51 53 55 59 62 64 67
26 27 24 24 25 26 28 30 26 30 37 34 35 30 36 25 26 28 34 37 38 45 49 51 49 45 46 51 63 74 81 83 81 79 80 77 79 81 83 86 87 86 87 85
26 25 22 25 30 32 32 31 28 29 40 50 54 31 28 25 31 40 44 45 47 52 54 48 48 54 69 80 87 88 88 86 86 85 83 83 85 86 83 84 82 80 78 79
30 29 27 32 31 32 31 30 31 40 34 43 53 41 21 23 34 47 46 47 49 56 51 50 57 66 77 87 88 92 92 86 82 83 84 83 81 81 77 76 77 77 74 74
30 30 27 25 34 32 32 29 27 34 41 47 52 34 21 29 37 42 46 46 51 49 49 57 64 78 85 88 90 88 85 81 79 76 77 82 86 86 85 83 77 74 71 72
31 34 26 31 29 37 33 30 31 32 47 45 41 36 31 34 45 44 50 52 48 47 53 63 73 78 82 88 86 82 78 78 83 87 91 93 94 96 94 91 90 88 85 80
28 30 36 37 35 31 32 31 32 36 36 45 34 41 42 48 52 59 59 51 47 51 56 67 75 87 89 83 76 73 84 90 95 97 97 97 96 97 94 95 96 97 98 97
33 33 37 37 36 32 35 34 30 30 32 38 35 40 43 47 48 55 49 48 53 56 62 68 85 87 78 76 82 87 91 95 91 91 93 94 96 96 98 97 97 98 97 98
35 38 39 28 34 34 34 35 33 28 31 37 43 42 46 42 47 48 51 51 55 54 59 79 83 77 83 83 89 87 82 89 98 98 98 98 97 97 98 97 98 98 98 97
37 44 44 42 30 30 31 32 32 29 29 30 38 42 50 53 52 49 48 55 47 49 67 77 80 81 85 87 84 89 97 98 98 98 98 98 98 98 98 97 97 98 98 96
40 40 44 45 43 28 34 31 32 38 29 30 34 31 45 48 47 42 45 45 45 52 66 86 84 83 85 87 84 97 98 98 98 98 98 98 97 98 98 94 93 99 99 97
44 41 41 47 37 32 33 30 28 32 33 31 34 36 44 49 55 46 46 36 42 59 76 87 84 80 73 75 96 98 98 98 98 97 98 98 98 97 93 92 95 98 98 99
48 48 43 51 50 36 31 28 30 31 28 29 31 39 47 55 60 46 41 44 49 58 82 80 76 72 72 88 98 98 98 97 98 98 98 98 98 91 90 93 93 96 96 96
44 44 47 47 47 30 27 30 36 35 31 31 32 38 47 52 46 44 35 42 44 59 71 75 74 70 77 95 98 98 98 98 98 98 98 98 97 93 95 94 95 94 94 91
44 38 39 34 28 25 27 30 33 34 31 28 33 35 43 46 42 40 33 40 47 62 71 76 74 69 88 97 97 98 98 98 98 98 98 98 97 97 97 90 88 90 90 80
41 36 36 34 29 28 28 29 31 30 30 27 31 36 39 44 39 37 33 37 53 68 73 75 71 73 89 96 98 98 98 98 98 98 95 92 82 73 66 64 64 56 49 51
39 35 35 33 30 29 27 27 27 28 30 28 28 33 41 37 37 35 31 38 57 71 73 74 71 78 85 97 98 98 98 98 98 91 77 67 61 54 53 50 47 40 39 33
38 34 35 34 33 32 26 24 28 29 29 32 33 34 37 35 39 31 30 41 65 72 72 71 69 78 82 95 98 98 98 97 82 63 51 37 35 34 32 29 27 24 20 15

GFSCGP_prec_cthk_231.txt.gz
RH
10 12 15 15 15 14 14 16 18 18 22 21 22 25 30 31 31 33 34 35 37 39 38 37 42 49 49 43 30 29 30 31 37 42 40 42 49 49 42 41 42 39 32 25
13 17 16 17 16 15 17 19 18 19 22 22 26 30 34 34 34 34 35 36 37 35 35 32 25 22 22 22 23 23 24 25 29 33 34 46 50 46 43 40 45 43 32 27
18 19 18 16 19 19 19 20 20 21 22 27 26 32 34 37 36 35 33 35 32 30 25 19 17 19 22 25 28 29 29 31 34 40 42 41 43 43 44 47 45 43 44 35
21 20 19 18 20 20 21 18 21 22 25 24 29 34 38 39 34 32 30 26 23 18 18 23 25 26 29 30 32 35 36 36 37 39 39 43 48 50 50 50 48 46 46 43
24 23 21 20 21 21 21 20 23 25 27 27 30 33 39 35 29 26 25 22 21 22 26 30 35 36 34 34 36 37 37 37 37 36 37 37 36 38 39 38 38 36 34 36
22 22 23 22 21 23 20 21 24 27 27 27 26 26 37 30 31 26 22 22 25 26 26 31 34 36 37 36 35 37 42 45 48 51 50 46 41 37 35 33 33 32 32 32
20 23 24 22 22 22 22 22 23 21 21 19 26 22 36 31 27 25 26 25 29 34 36 39 40 34 33 37 49 64 70 70 73 74 76 76 71 62 53 46 41 37 34 32
21 21 24 23 25 27 27 25 25 31 21 20 26 31 34 30 25 17 19 28 33 35 38 39 38 43 55 66 70 74 77 77 82 79 76 83 83 80 77 76 73 68 65 63
23 21 26 25 25 26 26 27 30 29 29 31 28 25 30 23 17 20 24 28 33 37 36 39 46 63 72 76 76 82 84 83 82 80 77 76 79 81 79 78 77 76 76 77
27 26 26 27 27 28 28 25 22 24 36 28 27 25 25 23 24 27 31 36 40 38 40 49 60 67 71 80 86 85 82 83 84 85 85 83 82 84 88 88 80 78 73 73
28 27 25 28 33 34 29 27 26 29 35 33 38 17 26 23 31 36 40 44 42 43 53 59 59 72 79 75 80 85 87 91 94 96 96 96 95 94 95 96 95 91 83 80
33 31 30 36 35 33 30 31 30 34 30 35 42 30 20 25 33 41 46 43 42 52 49 58 68 70 71 83 84 96 96 97 98 98 98 98 98 97 97 98 97 97 93 87
34 32 29 36 37 34 32 32 32 34 36 39 41 22 18 26 33 40 46 43 48 45 54 57 64 76 84 94 91 95 98 98 98 97 98 98 98 98 98 98 97 97 96 97
34 37 31 34 33 37 34 32 31 31 37 37 31 28 23 29 37 42 43 46 45 44 49 57 76 86 93 93 96 98 98 98 98 98 98 98 98 97 97 97 97 97 97 98
31 36 40 42 38 35 33 32 32 35 32 38 27 31 31 39 49 50 48 43 41 46 52 73 83 86 83 87 98 98 98 98 98 98 98 97 98 98 97 97 98 96 95 92
33 38 39 43 39 34 34 31 31 30 32 31 30 29 31 36 49 50 44 44 44 46 60 76 80 74 83 94 98 98 98 98 98 98 98 97 98 97 98 98 98 94 87 84
36 40 39 31 35 35 33 32 30 28 28 29 34 36 29 30 45 50 45 45 41 49 64 75 76 80 92 97 98 98 97 97 98 97 96 96 96 93 97 95 97 95 86 86
38 44 44 38 32 30 30 31 30 27 28 25 32 33 33 39 44 48 44 42 37 50 69 74 76 83 97 97 98 98 98 97 98 97 95 96 93 92 92 97 93 92 91 91
38 39 46 41 35 30 32 31 31 34 28 29 34 26 32 38 42 36 35 35 40 56 75 78 77 93 98 97 97 98 98 98 97 97 96 95 93 92 94 95 95 95 93 90
40 40 41 43 32 26 30 28 28 31 25 30 32 28 35 43 47 36 32 34 40 61 75 75 78 93 97 98 98 98 98 96 96 97 97 97 95 96 97 94 93 94 96 96
42 47 44 49 43 31 29 27 27 27 28 29 31 30 38 44 52 38 33 32 46 68 74 72 81 90 97 98 98 98 98 96 97 96 94 92 95 95 93 89 89 91 94 95
38 44 45 45 44 27 26 31 31 31 29 29 30 32 38 37 40 33 31 32 50 67 67 69 80 88 97 98 98 98 96 91 87 84 78 77 83 80 71 57 64 66 65 71
38 40 40 34 28 26 27 29 31 30 29 33 33 33 34 38 33 31 29 36 58 69 69 70 80 88 97 97 98 95 90 80 66 55 56 52 47 49 49 45 48 40 39 38
38 37 37 33 31 29 29 28 29 27 29 31 35 33 35 32 31 28 30 40 60 68 68 69 78 91 96 96 97 92 71 57 50 43 41 34 33 31 28 25 25 26 26 28
37 38 37 33 30 30 29 26 24 27 30 31 31 34 30 26 27 28 28 43 61 65 66 67 76 91 97 96 90 73 54 44 38 35 30 24 20 21 21 20 20 20 19 15
37 36 33 31 30 30 26 24 26 29 33 33 30 27 23 23 25 28 28 41 61 63 65 66 74 91 97 95 84 61 40 33 25 19 17 15 15 16 16 19 20 20 20 18

GFSCGP_prec_cthk_234.txt.gz
RH
10 11 14 14 15 15 15 16 17 18 24 22 26 28 30 31 31 32 32 32 30 30 30 28 27 22 19 21 23 26 28 30 33 33 32 31 29 29 31 36 45 44 42 49
12 16 16 17 17 16 16 17 18 20 24 22 26 30 32 33 32 33 30 28 27 25 23 19 18 21 27 29 31 30 32 33 34 36 37 41 40 36 34 36 39 39 40 48
15 17 17 16 18 18 19 19 19 21 21 26 26 33 34 34 32 30 28 26 24 19 20 19 22 28 30 31 32 34 36 38 41 44 42 40 41 42 42 38 38 44 51 49
19 18 18 17 19 20 21 19 22 22 23 24 26 26 36 33 27 25 23 16 16 21 25 30 32 33 35 39 44 50 55 60 65 70 69 66 59 53 51 45 41 38 41 43
22 20 19 19 22 22 21 21 23 24 25 25 28 28 31 27 25 21 19 16 20 27 32 33 34 36 41 56 70 74 74 75 78 80 81 78 74 72 71 67 56 48 41 40
21 22 22 22 23 25 23 20 24 26 24 25 23 21 26 25 24 19 16 19 27 32 35 33 39 49 57 63 67 71 75 76 82 83 82 83 81 80 78 80 81 77 67 52
20 23 24 23 23 24 24 20 22 20 18 19 20 18 28 26 19 18 24 27 34 38 35 40 43 54 62 68 74 77 80 82 85 87 89 87 82 80 77 78 80 82 82 83
21 24 26 26 27 28 27 23 22 27 18 17 17 18 29 23 13 15 25 34 36 39 39 44 57 65 71 73 82 84 90 95 96 95 95 95 92 90 86 85 86 84 79 80
24 27 31 29 29 29 27 23 26 22 22 22 17 20 32 15 14 17 25 31 36 37 41 52 64 74 78 84 91 95 96 96 97 98 97 97 98 98 97 95 94 92 94 85
27 28 30 32 31 32 26 23 20 20 34 24 12 13 20 13 18 23 28 36 36 38 49 63 70 81 85 90 92 96 98 98 98 98 98 98 98 98 98 98 98 98 98 98
29 29 31 32 35 34 26 24 22 24 23 20 21 15 17 16 23 32 36 36 41 45 57 66 70 75 82 88 94 98 98 97 98 98 98 98 98 98 98 98 98 98 98 98
32 30 31 35 37 34 27 26 24 27 23 27 29 24 17 18 27 35 37 41 43 49 59 60 70 81 89 95 97 98 97 97 98 98 98 97 98 98 98 97 97 97 97 98
31 28 30 39 39 34 30 29 27 28 29 35 30 16 13 21 24 33 40 40 42 49 53 64 76 90 96 96 98 98 97 97 96 97 97 98 97 97 97 94 91 90 94 98
31 31 32 35 33 33 34 32 28 24 28 25 26 16 18 21 27 35 39 39 46 48 57 70 82 95 96 98 97 96 97 96 96 97 98 96 95 97 96 91 88 84 84 86
29 33 36 38 35 33 31 29 28 31 23 31 21 22 22 25 31 39 40 40 40 50 62 76 88 95 96 95 94 96 97 97 96 97 94 95 94 95 96 97 92 86 78 76
28 36 34 38 35 33 31 30 27 24 23 25 24 20 22 28 33 35 40 37 43 60 67 77 93 96 95 94 94 96 97 97 97 96 94 95 94 92 94 96 96 88 82 81
31 32 34 31 33 32 30 25 25 21 22 25 23 23 25 29 37 42 41 33 47 66 71 80 95 96 96 95 96 96 97 97 97 98 96 96 95 95 97 97 94 94 93 91
31 34 37 32 30 35 29 28 24 24 24 24 26 26 25 32 39 41 32 36 55 67 72 82 95 96 97 97 95 93 91 92 97 97 95 95 95 95 96 98 97 95 96 92
30 31 41 38 28 26 29 29 25 27 24 25 30 27 22 28 38 33 27 41 61 71 74 87 98 97 98 98 94 89 81 81 84 75 73 70 80 89 95 95 94 95 98 94
32 32 37 37 36 27 28 27 26 28 23 27 24 24 27 31 38 27 29 43 62 71 73 84 96 98 99 96 85 72 64 58 63 63 59 52 62 64 69 77 93 94 91 97
32 36 40 33 36 26 26 25 26 24 20 25 26 26 30 38 39 33 33 46 63 70 71 83 94 96 95 93 66 52 50 48 49 44 41 42 39 41 44 49 56 66 89 96
30 39 39 38 37 29 25 27 27 23 24 26 26 29 34 34 32 30 29 45 62 67 68 81 92 94 92 80 49 41 41 45 41 35 30 30 29 32 34 33 41 56 57 76
33 32 35 31 25 26 26 27 25 25 26 26 28 28 29 24 27 26 26 43 63 67 68 80 93 94 89 65 44 35 33 33 30 23 21 21 20 22 24 24 26 26 29 33
30 30 32 30 26 25 26 27 24 25 27 29 29 28 24 22 25 26 25 42 62 66 66 78 93 93 79 52 36 31 25 23 20 18 18 20 19 21 20 20 18 16 18 20
30 30 30 27 25 26 28 26 25 27 29 29 28 25 24 20 23 24 24 40 62 65 66 76 91 93 80 44 33 27 20 20 17 15 13 19 21 21 22 22 22 22 22 20
31 30 28 24 23 25 25 25 25 29 29 23 21 22 18 19 21 24 25 37 60 65 66 73 89 94 80 42 33 25 18 18 14 13 12 13 17 22 23 23 23 24 24 22

GFSCGP_prec_cthk_237.txt.gz
RH
11 12 14 15 16 16 17 18 18 19 23 24 26 30 31 30 28 26 25 22 19 15 16 20 24 27 26 28 30 34 37 44 49 51 51 48 45 39 38 39 40 39 39 40
14 15 16 16 17 17 18 18 19 20 22 22 27 30 32 33 27 27 22 17 13 17 18 22 24 25 29 34 41 46 51 54 58 63 65 64 62 59 57 52 46 39 42 42
16 17 17 17 18 19 20 20 21 23 22 23 26 31 35 31 29 23 17 11 16 23 26 28 29 33 39 49 55 60 66 69 72 74 73 71 70 68 67 66 62 59 55 51
19 19 18 18 20 21 22 22 23 23 23 24 25 28 36 30 23 18 10 15 21 26 29 34 39 46 55 61 67 71 74 78 80 83 86 87 85 79 72 71 70 68 69 69
23 22 21 21 24 24 23 23 21 22 25 26 32 22 25 24 21 11 13 18 23 30 37 40 47 58 67 73 75 78 83 89 93 94 97 95 92 91 85 77 72 70 70 76
22 24 23 24 25 26 24 22 24 26 26 28 22 17 24 25 17 11 15 22 29 37 42 50 63 70 75 79 84 87 91 91 95 97 97 97 96 96 94 90 83 76 73 73
23 25 27 26 26 28 25 22 23 21 21 18 16 15 28 23 14 16 20 27 35 42 49 56 58 64 70 77 83 89 92 95 97 98 97 98 97 97 96 97 96 94 87 82
24 26 28 28 29 30 27 22 22 28 21 18 19 15 26 18 12 17 23 32 41 47 54 51 61 70 82 89 93 97 97 97 97 97 97 97 97 97 97 97 97 97 98 97
24 29 31 29 31 28 25 22 23 25 19 21 13 16 22 12 11 18 26 34 42 48 52 55 67 81 91 95 96 96 96 96 98 98 97 97 97 98 97 97 97 97 98 98
24 27 28 29 32 29 25 21 21 21 31 22 11 14 18 11 13 18 28 36 43 49 51 62 77 90 94 96 96 97 97 96 96 96 93 94 95 97 96 90 91 96 97 98
24 25 28 31 33 30 24 22 20 23 21 22 20 16 19 13 17 21 27 37 45 50 55 70 86 93 96 96 97 97 97 95 95 95 95 94 96 95 95 96 89 88 92 98
25 27 29 31 33 31 27 23 22 29 22 26 31 26 18 12 19 24 27 36 45 50 62 80 90 96 96 97 97 97 97 96 96 96 98 97 96 94 94 90 87 82 84 87
27 26 32 36 37 32 28 25 24 25 29 33 30 21 15 16 19 24 31 38 47 52 70 85 92 96 96 97 96 96 96 97 98 98 97 96 95 93 97 94 84 79 76 79
28 27 30 35 32 31 31 28 26 22 26 22 23 18 18 17 22 23 33 44 47 60 78 88 92 96 94 94 95 96 97 98 98 96 97 97 96 96 98 95 91 76 67 71
26 30 29 32 30 29 27 25 24 29 21 27 20 20 19 18 27 28 36 46 47 62 78 88 93 96 93 88 92 93 90 87 85 85 91 96 97 98 98 96 95 87 76 73
25 31 27 32 30 27 26 26 23 19 18 19 19 17 18 21 26 28 39 36 52 63 79 89 94 98 95 84 76 77 73 64 58 72 79 81 90 96 97 98 96 93 91 82
27 27 29 30 27 26 29 24 20 17 18 22 19 20 21 23 29 32 35 41 56 64 79 88 94 98 93 66 64 55 51 49 46 52 54 54 68 73 82 97 98 95 94 93
27 29 34 34 26 38 30 21 19 20 21 23 20 20 23 25 35 36 26 47 57 64 77 89 95 98 84 58 51 46 42 44 39 40 42 43 52 61 72 89 98 98 96 95
26 29 42 40 26 23 25 24 19 21 20 24 25 22 22 30 34 27 28 45 58 66 78 92 97 95 70 47 42 39 35 35 34 31 37 41 45 57 71 84 98 95 93 93
28 26 37 35 37 29 25 22 20 23 29 25 21 24 27 31 30 24 25 38 55 66 78 92 97 93 56 42 36 32 29 25 24 30 34 33 38 53 55 68 94 90 87 90
31 35 41 29 37 25 23 21 20 25 21 17 22 27 34 31 29 25 25 36 57 67 76 93 96 82 51 37 29 25 24 22 24 27 24 27 29 29 39 40 42 45 56 85
29 39 39 35 36 30 22 23 22 21 18 20 24 27 29 24 24 25 23 36 57 65 74 92 95 66 43 36 26 24 23 23 25 23 23 21 22 22 23 24 25 27 31 44
31 31 36 30 29 25 22 22 22 19 20 24 26 29 26 23 21 25 23 33 58 68 75 91 94 63 41 35 26 24 23 22 21 22 23 23 22 20 20 20 19 21 22 26
29 27 28 28 26 23 23 23 19 20 24 26 29 25 25 21 19 23 20 30 57 67 74 89 93 65 41 33 26 22 22 21 21 22 23 25 25 24 20 22 22 19 21 22
29 29 28 29 28 26 25 25 19 21 25 29 23 23 22 18 16 19 23 30 58 65 72 88 93 68 46 34 27 20 17 21 20 22 23 25 27 28 29 27 28 29 30 29
30 28 29 26 24 23 26 25 21 23 26 21 20 19 19 18 16 17 21 27 56 65 69 86 94 69 45 34 27 20 15 21 19 18 21 22 26 29 30 31 31 28 30 33

GFSCGP_prec_cthk_240.txt.gz
RH
13 14 16 17 17 18 19 20 20 22 25 25 29 29 29 28 23 20 18 12 10 14 18 23 28 33 38 45 51 56 59 62 63 63 66 67 68 70 70 66 62 61 54 51
16 18 17 17 19 20 21 22 23 23 25 25 28 30 29 29 23 21 16 10 13 18 25 31 36 42 50 57 63 69 70 72 72 74 76 80 80 78 79 80 76 64 62 59
18 19 18 19 21 22 24 25 25 26 25 25 27 32 33 30 24 18 14 11 16 24 32 36 42 49 55 61 66 72 77 80 83 86 87 87 88 87 87 87 85 84 71 66
21 20 20 22 24 25 28 25 25 25 24 29 26 35 35 25 19 19 11 13 22 30 35 40 46 52 62 69 76 84 87 87 89 92 94 96 94 91 92 92 90 86 83 72
23 22 22 23 25 27 27 24 23 22 22 28 26 22 23 22 17 15 12 16 27 33 39 45 51 62 72 82 87 88 87 88 90 93 94 93 92 92 94 95 94 94 92 86
22 22 23 23 25 27 25 22 23 24 25 31 18 16 28 22 16 12 13 20 29 36 43 49 59 73 81 89 91 91 89 88 88 88 89 93 95 95 88 88 91 95 96 96
22 23 23 23 26 27 23 20 29 26 27 19 15 22 29 18 15 13 15 23 30 41 48 56 71 80 85 90 92 92 93 89 90 89 90 94 95 94 93 95 91 84 97 98
23 25 24 24 27 25 23 22 27 32 27 22 18 24 27 16 16 14 17 25 34 46 51 67 80 85 91 91 92 94 95 94 93 94 94 94 95 96 92 88 90 89 87 97
23 26 26 25 27 25 23 21 20 25 21 25 19 22 20 15 14 15 20 28 39 47 60 75 84 87 94 92 94 94 95 96 97 97 96 97 96 96 95 93 87 84 84 87
21 25 24 26 28 24 22 18 21 22 36 30 15 20 19 17 17 15 22 31 44 53 64 80 84 86 93 92 92 94 97 97 97 98 98 97 97 98 95 90 87 79 75 80
22 24 26 26 29 27 23 21 18 19 21 28 36 22 20 20 18 18 27 36 49 57 70 83 86 90 88 89 85 86 83 77 86 93 97 97 97 98 97 96 88 80 71 76
23 26 26 28 29 28 25 21 20 39 34 34 42 31 18 14 18 20 31 39 52 58 76 84 90 95 80 73 72 66 54 67 73 74 79 96 97 98 97 98 87 76 71 66
26 26 32 34 33 29 25 22 19 21 27 45 42 28 14 16 19 23 32 42 48 58 76 84 90 92 65 60 56 49 44 51 52 51 62 66 73 96 98 98 92 86 77 66
25 26 27 37 29 27 26 25 23 22 36 31 25 20 16 17 21 25 34 44 46 61 76 87 91 91 59 51 48 45 38 42 41 42 54 59 67 81 98 98 97 94 84 73
24 28 23 27 25 23 22 21 20 31 22 28 20 19 18 18 26 27 36 39 49 57 74 86 91 82 54 42 41 42 34 34 38 41 52 64 71 86 98 98 98 97 94 82
23 29 24 25 26 22 21 21 20 18 15 17 18 17 17 20 26 27 35 31 49 58 77 90 89 72 48 43 40 38 32 32 36 36 53 67 76 93 98 97 98 97 98 90
24 26 30 29 23 23 27 21 18 16 16 19 20 20 20 23 26 28 28 34 51 63 80 92 88 65 48 40 32 29 29 33 32 33 44 50 71 95 95 93 93 93 96 98
25 29 33 42 24 40 26 20 18 16 18 21 19 19 22 27 24 26 20 35 51 66 84 93 83 58 42 37 27 26 29 33 31 31 32 35 42 46 64 75 90 94 95 97
24 28 42 46 32 25 23 22 17 19 24 24 22 22 24 26 22 23 25 33 54 70 88 94 72 51 39 35 26 26 28 34 30 28 26 27 30 30 35 67 94 95 91 93
26 26 41 42 41 36 26 23 18 23 31 23 19 20 27 24 24 24 23 29 54 70 88 95 69 48 37 33 25 25 28 31 28 26 25 22 23 26 30 40 65 68 75 87
36 38 44 39 43 30 26 21 20 26 25 16 20 23 28 25 23 25 21 26 56 70 87 96 64 47 37 31 25 24 27 26 28 25 26 24 22 24 25 27 31 36 44 53
32 45 49 40 42 39 26 23 22 20 16 18 21 25 26 21 18 21 20 24 54 69 82 92 65 47 37 32 25 24 26 27 27 25 26 28 25 23 24 24 25 31 35 38
34 32 44 35 35 28 23 22 20 17 17 19 20 23 22 19 17 18 18 24 54 68 80 87 72 47 37 32 25 25 27 28 26 26 26 29 31 29 27 29 30 31 35 37
28 28 30 28 27 27 24 21 20 17 19 20 20 20 20 18 16 16 17 23 52 66 78 87 67 45 37 32 25 25 25 28 27 25 26 29 33 35 34 35 37 39 38 41
27 28 28 28 27 26 23 22 19 19 20 20 19 20 19 17 16 14 16 24 49 64 75 86 69 48 40 33 26 21 23 28 26 25 27 29 32 35 39 40 42 42 44 46
27 27 29 28 26 25 23 22 18 20 20 18 18 19 18 17 15 13 15 25 47 63 71 84 82 50 42 35 27 21 22 27 25 25 27 29 32 34 37 39 39 42 49 52